Regional Weather Roundup
Issued by NWS

Home | Current Version | Previous Version | Graphics & Text | Print | Product List | Glossary On
Versions: 1 2 3 4 5 6 7 8 9 10 11 12 13 14 15 16 17 18 19 20 21 22 23 24 25 26 27 28 29 30 31 32 33 34 35 36 37 38 39 40 41 42 43 44 45 46 47 48 49 50
000
ASUS43 KLOT 270700
RWRIL

ILLINOIS REGIONAL WEATHER ROUNDUP
NATIONAL WEATHER SERVICE CHICAGO/ROMEOVILLE IL
200 AM CDT WED MAY 27 2015

NOTE: "FAIR" INDICATES FEW OR NO CLOUDS BELOW 12,000 FEET WITH NO
SIGNIFICANT WEATHER AND/OR OBSTRUCTIONS TO VISIBILITY.

* THESE STATIONS ARE NOT UNDER NWS QUALITY CONTROL. THEY ALSO MAY NOT
  REPORT WEATHER SUCH AS PRECIPITATION OR FOG.

ILZ001-002-007-009-015-016-024-270800-
NORTHWEST ILLINOIS

CITY           SKY/WX    TMP DP  RH WIND       PRES   REMARKS
MOLINE         PTCLDY    63  59  87 SW9       29.85S
STERLING*      PTCLDY    64  61  88 SW8       29.85R
$$

ILZ003-004-008-010-011-017-018-270800-
NORTH CENTRAL ILLINOIS

CITY           SKY/WX    TMP DP  RH WIND       PRES   REMARKS
ROCKFORD       MOCLDY    64  60  87 SW6       29.84S
$$

ILZ005-006-012>014-019>023-270800-
NORTHEAST ILLINOIS

CITY           SKY/WX    TMP DP  RH WIND       PRES   REMARKS
CHICAGO-OHARE  CLOUDY    67  61  81 SW9       29.83F
CHICAGO-MIDWAY MOCLDY    68  63  84 SW14      29.84S
AURORA         MOCLDY    66  60  81 SW14      29.85S
WAUKEGAN       NOT AVBL
DUPAGE AIRPORT CLOUDY    66  61  84 SW14      29.84S
WHEELING       MOCLDY    65  62  90 VRB3      29.84F
NORTHERLY ISL    N/A     68  60  75 S9          N/A
$$

LMZ740>746-270800-
SOUTHERN LAKE MICHIGAN

STATION/POSITION SKY/WX   TEMP    WIND        PRES    VSBY  WAVE
                          AIR SEA DIR/SP/G                  HT/PER
                          (F)     (DEG/KT/KT) (MB)    (MI)  (FT/S)
SOUTHERN BUOY              47 38  190/ 14/ 16 1010.0S         2/ 4
HARRISON CRIB              69     200/ 26/ 33   N/A
BURNHAM HARBOR             70     190/ 16/ 22   N/A
CALUMET HARBOR             68     200/ 16/ 23   N/A
BURNS HARBOR               68     190/ 15/ 20 1011.9F
MICHIGAN CITY              69     170/ 16/ 21   N/A
MICHIGAN CITY 6N           64 52  210/ 16/ 21   N/A           2/ 3
ST. JOSEPH                 62 55  230/ 12/ 14   N/A           2/ 4
$$

ILZ025>027-034>036-040-047-049-050-058-095>099-270800-
WEST-CENTRAL ILLINOIS

CITY           SKY/WX    TMP DP  RH WIND       PRES   REMARKS
QUINCY         MOCLDY    65  63  93 S5        29.92S
$$

ILZ028>032-037-038-041>044-048-051>054-059>061-270800-
CENTRAL ILLINOIS

CITY           SKY/WX    TMP DP  RH WIND       PRES   REMARKS
DECATUR        CLEAR     67  60  78 SW15      29.94F
PEORIA         PTCLDY    70  61  73 SW10      29.90S
SPRINGFIELD    MOCLDY    69  62  78 S13       29.93S
TAYLORVILLE    NOT AVBL
$$

ILZ033-039-045-046-055>057-062-063-270800-
EAST-CENTRAL ILLINOIS

CITY           SKY/WX    TMP DP  RH WIND       PRES   REMARKS
CHAMPAIGN      CLEAR     66  60  81 S14       29.95F
MATTOON        CLEAR     66  61  84 S8        29.96F
$$

ILZ079-100>102-270800-
SOUTHWEST ILLINOIS

CITY           SKY/WX    TMP DP  RH WIND       PRES   REMARKS
BELLEVILLE     CLEAR     66  64  93 S6        29.97S
CAHOKIA*       CLEAR     67  61  81 SE5       29.97S
$$

ILZ064>066-069>071-074>076-080>082-084>086-088>090-092>094-270800-
SOUTH-CENTRAL ILLINOIS

CITY           SKY/WX    TMP DP  RH WIND       PRES   REMARKS
CARBONDALE     CLEAR     67  62  84 SW8       30.02S
MT. VERNON     CLEAR     66  61  82 S8        30.02S
$$

ILZ067-068-072-073-078-083-087-091-270800-
SOUTHEAST ILLINOIS

CITY           SKY/WX    TMP DP  RH WIND       PRES   REMARKS
LAWRENCEVILLE  CLEAR     66  61  84 S7        30.01F
$$

ABBREVIATIONS USED IN REMARKS
   TC - TEMPERATURE IN CELSIUS
  WCI - WIND CHILL INDEX
   HX - HEAT INDEX
  VSB - VISIBILITY
$$



USA.gov is the U.S. government's official web portal to all federal, state and local government web resources and services.